Flight Track Log - Related Links

Times and Time Zones

All times are in EDT time to prevent confusion due to time zone crossing. See the TAM3766 flight status page for this flight to view local times or setup timezone preferences in your user account.

Time Position Orientation Groundspeed Altitude Reporting Facility
EDT Latitude Longitude Course Direction KTS MPH feet Rate Location/Type
10:50AM -22.8130 -43.2630 223° Southwest  Level FlightAware
10:52AM -22.8370 -43.2180 120° Southeast 169 194 1,200 984 Climbing FlightAware
10:53AM -22.8260 -43.1650 77° East 239 275 2,100 1,816 Climbing FlightAware
10:53AM -22.8130 -43.1250 71° East 255 293 3,500 2,595 Climbing FlightAware
10:54AM -22.7950 -43.0760 68° East 268 308 5,300 2,581 Climbing FlightAware
10:55AM -22.7700 -43.0070 69° East 289 333 7,500 2,374 Climbing FlightAware
10:55AM -22.7500 -42.9530 68° East 306 352 8,900 2,069 Climbing FlightAware
10:56AM -22.7200 -42.8900 63° Northeast 317 365 10,500 1,667 Climbing FlightAware
10:57AM -22.6890 -42.8740 25° Northeast 332 382 10,900 1,183 Climbing FlightAware
10:57AM -22.6190 -42.9010 340° North 353 406 11,900 1,733 Climbing FlightAware
10:58AM -22.5550 -42.9420 329° Northwest 359 413 13,500 1,952 Climbing FlightAware
10:59AM -22.4970 -42.9790 329° Northwest 373 429 14,600 1,624 Climbing FlightAware
10:59AM -22.4300 -43.0230 329° Northwest 387 445 15,800 1,733 Climbing FlightAware
11:00AM -22.3600 -43.0690 329° Northwest 388 447 17,200 1,703 Climbing FlightAware
11:01AM -22.3240 -43.0930 328° Northwest 386 444 17,900 1,462 Climbing FlightAware
11:01AM -22.2460 -43.1450 328° Northwest 394 453 19,100 1,373 Climbing FlightAware
11:02AM -22.1870 -43.1840 329° Northwest 405 466 19,800 1,313 Climbing FlightAware
11:03AM -22.1370 -43.2160 329° Northwest 411 473 20,500 1,343 Climbing FlightAware
11:03AM -22.0780 -43.2550 329° Northwest 416 479 21,300 1,102 Climbing FlightAware
11:04AM -21.9810 -43.3180 329° Northwest 426 490 22,300 1,069 Climbing FlightAware
11:05AM -21.9190 -43.3580 329° Northwest 430 495 23,100 1,215 Climbing FlightAware
11:05AM -21.8480 -43.4030 330° Northwest 432 497 23,900 1,037 Climbing FlightAware
11:06AM -21.7740 -43.4510 329° Northwest 440 506 24,500 1,229 Climbing FlightAware
11:07AM -21.7030 -43.4970 329° Northwest 439 505 25,600 1,129 Climbing FlightAware
11:08AM -21.6010 -43.5620 329° Northwest 446 513 26,400 606 Climbing FlightAware
11:09AM -21.5270 -43.6100 329° Northwest 462 532 26,600 400 Climbing FlightAware
11:09AM -21.4590 -43.6530 330° Northwest 475 547 26,900 846 Climbing FlightAware
11:10AM -21.3800 -43.7030 329° Northwest 474 545 27,700 973 Climbing FlightAware
11:10AM -21.3190 -43.7420 329° Northwest 476 548 28,100 750 Climbing FlightAware
11:10AM -21.3050 -43.7520 326° Northwest 478 550 28,200 930 Climbing FlightAware
11:12AM -21.1840 -43.8290 329° Northwest 480 552 29,200 947 Climbing FlightAware
11:12AM -21.1210 -43.8690 329° Northwest 479 551 29,700 1,185 Climbing FlightAware
11:13AM -21.0300 -43.9270 329° Northwest 471 542 30,800 1,753 Climbing FlightAware
11:14AM -20.9570 -43.9730 330° Northwest 446 513 32,300 1,200 Climbing FlightAware
11:14AM -20.8580 -44.0360 329° Northwest 456 525 32,600 452 Climbing FlightAware
11:15AM -20.7780 -44.0860 330° Northwest 458 527 33,000 585 Climbing FlightAware
11:16AM -20.7170 -44.1250 329° Northwest 458 527 33,400 643 Climbing FlightAware
11:17AM -20.6260 -44.1830 329° Northwest 460 529 33,900 396 Climbing FlightAware
11:17AM -20.5410 -44.2360 330° Northwest 455 524 34,000 51 Climbing FlightAware
11:18AM -20.4130 -44.3180 329° Northwest 456 525 34,000  Level FlightAware
11:19AM -20.3420 -44.3640 329° Northwest 459 528 34,000 87 Level FlightAware
11:20AM -20.2860 -44.4000 329° Northwest 461 531 34,100 88 Climbing FlightAware
11:20AM -20.2170 -44.4440 329° Northwest 458 527 34,100  Level FlightAware
11:21AM -20.1620 -44.4790 329° Northwest 454 522 34,100 -88 Level FlightAware
11:21AM -20.0960 -44.5210 329° Northwest 451 519 34,000 -83 Descending FlightAware
11:22AM -20.0340 -44.5620 328° Northwest 450 518 34,000  Level FlightAware
11:23AM -19.9460 -44.6170 330° Northwest 449 517 34,000  Level FlightAware
11:24AM -19.8630 -44.6710 329° Northwest 450 518 34,000  Level FlightAware
11:24AM -19.7950 -44.7140 329° Northwest 450 518 34,000  Level FlightAware
11:25AM -19.7370 -44.7510 329° Northwest 449 517 34,000  Level FlightAware
11:25AM -19.6690 -44.7940 329° Northwest 454 522 34,000  Level FlightAware
11:26AM -19.5980 -44.8400 329° Northwest 456 525 34,000  Level FlightAware
11:27AM -19.5330 -44.8810 329° Northwest 457 526 34,000  Level FlightAware
11:27AM -19.4530 -44.9320 329° Northwest 458 527 34,000  Level FlightAware
11:28AM -19.3990 -44.9670 329° Northwest 457 526 34,000  Level FlightAware
11:28AM -19.3350 -45.0070 329° Northwest 456 525 34,000  Level FlightAware
11:29AM -19.2700 -45.0490 329° Northwest 455 524 34,000  Level FlightAware
11:30AM -19.2100 -45.0870 329° Northwest 455 524 34,000  Level FlightAware
11:30AM -19.1160 -45.1460 329° Northwest 457 526 34,000  Level FlightAware
11:31AM -19.0520 -45.1860 329° Northwest 458 527 34,000  Level FlightAware
11:32AM -18.9890 -45.2260 329° Northwest 459 528 34,000  Level FlightAware
11:33AM -18.8870 -45.2900 329° Northwest 459 528 34,000  Level FlightAware
11:33AM -18.8250 -45.3290 329° Northwest 459 528 34,000  Level FlightAware
11:34AM -18.7610 -45.3690 329° Northwest 460 529 34,000  Level FlightAware
11:35AM -18.6590 -45.4330 329° Northwest 460 529 34,000  Level FlightAware
11:35AM -18.6060 -45.4660 329° Northwest 459 528 34,000  Level FlightAware
11:36AM -18.5230 -45.5180 329° Northwest 460 529 34,000  Level FlightAware
11:36AM -18.4570 -45.5600 329° Northwest 460 529 34,000  Level FlightAware
11:37AM -18.3840 -45.6050 330° Northwest 459 528 34,000  Level FlightAware
11:38AM -18.3330 -45.6370 329° Northwest 459 528 34,000  Level FlightAware
11:38AM -18.2740 -45.6750 329° Northwest 458 527 34,000  Level FlightAware
11:39AM -18.1930 -45.7260 329° Northwest 458 527 34,000  Level FlightAware
11:40AM -18.1100 -45.7780 329° Northwest 458 527 34,000  Level FlightAware
11:40AM -18.0370 -45.8230 330° Northwest 458 527 34,000  Level FlightAware
11:41AM -17.9940 -45.8510 328° Northwest 459 528 34,000  Level FlightAware
11:42AM -17.8730 -45.9260 329° Northwest 460 529 34,000  Level FlightAware
11:43AM -17.7810 -45.9820 330° Northwest 460 529 34,000  Level FlightAware
11:43AM -17.7360 -46.0090 330° Northwest 460 529 34,000  Level FlightAware
11:44AM -17.6440 -46.0660 329° Northwest 462 532 34,000  Level FlightAware
11:45AM -17.5720 -46.1100 330° Northwest 463 533 34,000  Level FlightAware
11:45AM -17.5030 -46.1530 329° Northwest 465 535 34,000  Level FlightAware
11:46AM -17.4300 -46.1980 330° Northwest 466 536 34,000  Level FlightAware
11:47AM -17.3460 -46.2500 329° Northwest 468 539 34,000  Level FlightAware
11:47AM -17.2910 -46.2840 329° Northwest 468 539 34,000  Level FlightAware
11:47AM -17.2410 -46.3140 330° Northwest 469 540 34,000  Level FlightAware
11:48AM -17.1680 -46.3600 329° Northwest 470 541 34,000  Level FlightAware
11:49AM -17.1060 -46.3980 330° Northwest 470 541 34,000  Level FlightAware
11:49AM -17.0520 -46.4320 329° Northwest 470 541 34,000  Level FlightAware
11:50AM -16.9940 -46.4690 329° Northwest 470 541 34,000  Level FlightAware
11:51AM -16.9350 -46.5060 329° Northwest 470 541 34,000  Level FlightAware
11:51AM -16.8570 -46.5550 329° Northwest 470 541 34,000  Level FlightAware
11:52AM -16.8000 -46.5900 330° Northwest 470 541 34,000  Level FlightAware
11:53AM -16.7240 -46.6380 329° Northwest 470 541 34,000  Level FlightAware
11:54AM -16.6480 -46.6860 329° Northwest 470 541 34,000  Level FlightAware
11:54AM -16.5910 -46.7220 329° Northwest 470 541 34,000  Level FlightAware
11:55AM -16.5330 -46.7580 329° Northwest 470 541 34,000  Level FlightAware
11:55AM -16.4760 -46.7940 329° Northwest 470 541 34,000  Level FlightAware
11:57AM -16.2000 -46.9550 331° Northwest 471 542 34,000  Level FlightAware
11:57AM -16.1340 -46.9960 329° Northwest 472 543 34,000  Level FlightAware
11:58AM -16.0790 -47.0300 329° Northwest 472 543 34,000  Level FlightAware
11:59AM -15.9650 -47.0990 330° Northwest 475 547 34,000  Level FlightAware
11:59AM -15.8780 -47.1520 330° Northwest 477 549 34,000  Level FlightAware
12:00PM -15.7930 -47.2050 329° Northwest 478 550 34,000  Level FlightAware
12:01PM -15.7250 -47.2460 330° Northwest 479 551 34,000  Level FlightAware
12:01PM -15.6690 -47.2800 330° Northwest 480 552 34,000  Level FlightAware
12:02PM -15.5930 -47.3260 330° Northwest 481 554 34,000  Level FlightAware
12:03PM -15.5170 -47.3780 327° Northwest 478 550 34,000  Level FlightAware
12:03PM -15.4460 -47.4330 323° Northwest 479 551 34,000  Level FlightAware
12:04PM -15.3780 -47.4900 321° Northwest 475 547 34,000  Level FlightAware
12:05PM -15.3160 -47.5530 316° Northwest 475 547 34,000  Level FlightAware
12:05PM -15.2590 -47.6090 317° Northwest 475 547 34,000  Level FlightAware
12:06PM -15.1960 -47.6710 316° Northwest 476 548 34,000  Level FlightAware
12:06PM -15.1470 -47.7190 317° Northwest 477 549 34,000  Level FlightAware
12:07PM -15.0830 -47.7820 316° Northwest 478 550 34,000  Level FlightAware
12:08PM -15.0270 -47.8370 317° Northwest 478 550 34,000  Level FlightAware
12:08PM -14.9830 -47.8800 317° Northwest 478 550 34,000  Level FlightAware
12:09PM -14.9160 -47.9470 316° Northwest 476 548 34,000  Level FlightAware
12:09PM -14.8600 -48.0010 317° Northwest 476 548 34,000  Level FlightAware
12:10PM -14.8060 -48.0540 316° Northwest 477 549 34,000  Level FlightAware
12:10PM -14.7630 -48.0960 317° Northwest 477 549 34,000  Level FlightAware
12:11PM -14.6680 -48.1890 317° Northwest 477 549 34,000  Level FlightAware
12:12PM -14.6030 -48.2530 316° Northwest 478 550 34,000  Level FlightAware
12:13PM -14.5330 -48.3210 317° Northwest 477 549 34,000  Level FlightAware
12:14PM -14.4610 -48.3910 317° Northwest 477 549 34,000  Level FlightAware
12:14PM -14.4160 -48.4360 316° Northwest 476 548 34,000  Level FlightAware
12:15PM -14.3590 -48.4910 317° Northwest 476 548 34,000  Level FlightAware
12:16PM -14.2740 -48.5760 316° Northwest 476 548 34,000  Level FlightAware
12:16PM -14.2250 -48.6240 316° Northwest 476 548 34,000  Level FlightAware
12:17PM -14.1770 -48.6720 316° Northwest 476 548 34,000  Level FlightAware
12:18PM -14.0800 -48.7690 316° Northwest 476 548 34,000  Level FlightAware
12:19PM -14.0150 -48.8330 316° Northwest 476 548 34,000  Level FlightAware
12:19PM -13.9820 -48.8670 315° West 476 548 34,000  Level FlightAware
12:20PM -13.9330 -48.9150 316° Northwest 476 548 34,000  Level FlightAware
12:21PM -13.8670 -48.9800 316° Northwest 476 548 34,000  Level FlightAware
12:21PM -13.8190 -49.0290 315° West 476 548 34,000  Level FlightAware
12:22PM -13.7560 -49.0920 316° Northwest 476 548 34,000  Level FlightAware
12:23PM -13.5360 -49.2880 319° Northwest 474 545 34,000  Level FlightAware
12:24PM -13.4710 -49.3510 317° Northwest 472 543 34,000  Level FlightAware
12:25PM -13.3920 -49.4290 316° Northwest 472 543 34,000  Level FlightAware
12:25PM -13.3460 -49.4710 318° Northwest 469 540 34,000  Level FlightAware
12:26PM -13.2520 -49.5620 317° Northwest 468 539 34,000  Level FlightAware
12:27PM -13.1860 -49.6260 317° Northwest 468 539 34,000  Level FlightAware
12:28PM -13.1220 -49.6870 317° Northwest 470 541 34,000  Level FlightAware
12:28PM -13.0670 -49.7390 317° Northwest 468 539 34,000  Level FlightAware
12:29PM -13.0230 -49.7820 316° Northwest 467 537 34,000  Level FlightAware
12:30PM -12.9190 -49.8810 317° Northwest 466 536 34,000  Level FlightAware
12:30PM -12.8900 -49.9090 317° Northwest 466 536 34,000  Level FlightAware
12:31PM -12.8150 -49.9810 317° Northwest 467 537 34,000  Level FlightAware
12:32PM -12.6890 -50.1010 317° Northwest 469 540 34,000  Level FlightAware
12:33PM -12.6520 -50.1380 316° Northwest 469 540 34,000  Level FlightAware
12:34PM -12.5550 -50.2330 316° Northwest 469 540 34,000  Level FlightAware
12:35PM -12.5060 -50.2820 316° Northwest 469 540 34,000  Level FlightAware
12:36PM -12.4610 -50.3270 316° Northwest 469 540 34,000  Level FlightAware
12:37PM -12.2340 -50.5340 318° Northwest 475 547 34,000  Level FlightAware
12:38PM -12.1650 -50.6010 316° Northwest 476 548 34,000  Level FlightAware
12:38PM -12.1350 -50.6280 319° Northwest 478 550 34,000  Level FlightAware
12:39PM -12.0480 -50.7100 317° Northwest 478 550 34,000  Level FlightAware
12:39PM -11.9980 -50.7580 317° Northwest 478 550 34,000  Level FlightAware
12:40PM -11.9310 -50.8220 317° Northwest 477 549 34,000  Level FlightAware
12:41PM -11.8650 -50.8840 317° Northwest 477 549 34,000  Level FlightAware
12:41PM -11.7960 -50.9490 317° Northwest 475 547 34,000  Level FlightAware
12:42PM -11.7670 -50.9770 317° Northwest 474 545 34,000  Level FlightAware
12:42PM -11.6870 -51.0520 317° Northwest 473 544 34,000  Level FlightAware
12:43PM -11.6450 -51.0920 317° Northwest 471 542 34,000  Level FlightAware
12:44PM -11.5960 -51.1390 317° Northwest 471 542 34,000  Level FlightAware
12:44PM -11.5510 -51.1810 318° Northwest 469 540 34,000  Level FlightAware
12:45PM -11.4900 -51.2380 318° Northwest 469 540 34,000  Level FlightAware
12:45PM -11.4170 -51.3070 317° Northwest 469 540 34,000  Level FlightAware
12:46PM -11.3660 -51.3560 317° Northwest 469 540 34,000  Level FlightAware
12:47PM -11.2640 -51.4510 318° Northwest 471 542 34,000  Level FlightAware
12:48PM -11.2050 -51.5060 318° Northwest 472 543 34,000  Level FlightAware
12:48PM -11.1380 -51.5690 317° Northwest 471 542 34,000  Level FlightAware
12:49PM -11.0860 -51.6180 317° Northwest 471 542 34,000  Level FlightAware
12:49PM -11.1380 -51.5690 137° Southeast 471 542 34,000  Level FlightAware
12:51PM -10.9090 -51.7900 317° Northwest 470 541 34,000  Level FlightAware
12:52PM -10.8270 -51.8730 315° West 470 541 34,000  Level FlightAware
12:52PM -10.7830 -51.9190 314° West 470 541 34,000  Level FlightAware
12:53PM -10.7170 -51.9850 316° Northwest 470 541 34,000  Level FlightAware
12:54PM -10.6700 -52.0330 315° West 470 541 34,000  Level FlightAware
12:54PM -10.6260 -52.0780 315° West 470 541 34,000  Level FlightAware
12:55PM -10.5790 -52.1260 315° West 470 541 34,000  Level FlightAware
12:56PM -10.5160 -52.1900 315° West 470 541 34,000  Level FlightAware
12:56PM -10.4690 -52.2380 315° West 470 541 34,000  Level FlightAware
12:57PM -10.4210 -52.2870 315° West 470 541 34,000  Level FlightAware
12:57PM -10.3740 -52.3350 315° West 470 541 34,000  Level FlightAware
12:58PM -10.3250 -52.3840 315° West 470 541 34,000  Level FlightAware
12:59PM -10.2940 -52.4160 315° West 470 541 34,000  Level FlightAware
01:00PM -10.2140 -52.4970 315° West 470 541 34,000  Level FlightAware
01:01PM -10.1340 -52.5780 315° West 470 541 34,000 -280 Level FlightAware
01:03PM -9.9852 -52.7387 313° West  Level Estimated
01:04PM -9.9096 -52.8203 313° West  Level Estimated
01:05PM -9.8339 -52.9020 313° West  Level Estimated
01:06PM -9.7582 -52.9835 313° West  Level Estimated
01:07PM -9.6824 -53.0651 313° West  Level Estimated
01:08PM -9.6067 -53.1466 313° West  Level Estimated
01:09PM -9.5309 -53.2280 313° West  Level Estimated
01:10PM -9.4551 -53.3095 313° West  Level Estimated
01:11PM -9.3793 -53.3909 313° West  Level Estimated
01:12PM -9.3035 -53.4722 313° West  Level Estimated
01:13PM -9.2277 -53.5535 313° West  Level Estimated
01:14PM -9.1518 -53.6348 313° West  Level Estimated
01:15PM -9.0759 -53.7161 313° West  Level Estimated
01:16PM -9.0000 -53.7973 313° West  Level Estimated
01:17PM -8.9241 -53.8785 313° West  Level Estimated
01:18PM -8.8482 -53.9596 313° West  Level Estimated
01:19PM -8.7722 -54.0408 313° West  Level Estimated
01:20PM -8.6963 -54.1218 313° West  Level Estimated
01:21PM -8.6203 -54.2029 313° West  Level Estimated
01:22PM -8.5443 -54.2839 313° West  Level Estimated
01:23PM -8.4683 -54.3649 313° West  Level Estimated
01:24PM -8.3922 -54.4459 314° West  Level Estimated
01:25PM -8.3162 -54.5268 314° West  Level Estimated
01:26PM -8.2401 -54.6077 314° West  Level Estimated
01:27PM -8.1640 -54.6885 314° West  Level Estimated
01:28PM -8.0879 -54.7693 314° West  Level Estimated
01:29PM -8.0118 -54.8502 314° West  Level Estimated
01:30PM -7.9357 -54.9309 314° West  Level Estimated
01:31PM -7.8595 -55.0117 314° West  Level Estimated
01:32PM -7.7834 -55.0924 314° West  Level Estimated
01:33PM -7.7072 -55.1730 314° West  Level Estimated
01:34PM -7.6310 -55.2537 314° West  Level Estimated
01:35PM -7.5548 -55.3343 314° West  Level Estimated
01:36PM -7.4786 -55.4149 314° West  Level Estimated
01:37PM -7.4023 -55.4955 314° West  Level Estimated
01:38PM -7.3261 -55.5760 314° West  Level Estimated
01:39PM -7.2498 -55.6565 314° West  Level Estimated
01:40PM -7.1735 -55.7370 314° West  Level Estimated
01:41PM -7.0972 -55.8175 314° West  Level Estimated
01:42PM -7.0209 -55.8979 314° West  Level Estimated
01:43PM -6.9446 -55.9783 314° West  Level Estimated
01:44PM -6.8683 -56.0587 314° West  Level Estimated
01:45PM -6.7919 -56.1390 314° West  Level Estimated
01:46PM -6.7156 -56.2194 314° West  Level Estimated
01:47PM -6.6392 -56.2997 314° West  Level Estimated
01:48PM -6.5628 -56.3799 314° West  Level Estimated
01:49PM -6.4864 -56.4602 314° West  Level Estimated
01:50PM -6.4100 -56.5404 314° West  Level Estimated
01:51PM -6.3336 -56.6206 314° West  Level Estimated
01:52PM -6.2571 -56.7008 314° West  Level Estimated
01:53PM -6.1807 -56.7810 314° West  Level Estimated
01:54PM -6.1042 -56.8611 314° West  Level Estimated
01:55PM -6.0278 -56.9412 314° West  Level Estimated
01:56PM -5.9513 -57.0213 314° West  Level Estimated
01:57PM -5.8748 -57.1013 314° West  Level Estimated
01:58PM -5.7983 -57.1814 314° West  Level Estimated
01:59PM -5.7217 -57.2614 314° West  Level Estimated
02:00PM -5.6452 -57.3414 314° West  Level Estimated
02:01PM -5.5687 -57.4214 314° West  Level Estimated
02:02PM -5.4921 -57.5014 314° West  Level Estimated
02:03PM -5.4156 -57.5813 314° West  Level Estimated
02:04PM -5.3390 -57.6612 314° West  Level Estimated
02:05PM -5.2624 -57.7411 314° West  Level Estimated
02:06PM -5.1858 -57.8210 314° West  Level Estimated
02:07PM -5.1092 -57.9008 314° West  Level Estimated
02:08PM -5.0326 -57.9807 314° West  Level Estimated
02:09PM -4.9560 -58.0605 314° West  Level Estimated
02:10PM -4.8794 -58.1403 314° West  Level Estimated
02:11PM -4.8027 -58.2201 314° West  Level Estimated
02:12PM -4.7261 -58.2999 314° West  Level Estimated
02:13PM -4.6494 -58.3796 314° West  Level Estimated
02:14PM -4.5727 -58.4593 314° West  Level Estimated
02:15PM -4.4960 -58.5390 314° West  Level Estimated
02:16PM -4.4194 -58.6187 314° West  Level Estimated
02:17PM -4.3427 -58.6984 314° West  Level Estimated
02:18PM -4.2660 -58.7781 314° West  Level Estimated
02:18PM -3.3370 -59.4720 314° West 306 352 12,100  Level FlightAware
02:18PM -3.3250 -59.5220 284° West 306 352 11,700 -1,479 Descending FlightAware
02:19PM -4.1892 -58.8577 314° West  Level Estimated
02:19PM -3.3120 -59.5740 284° West 298 343 10,300  Level FlightAware
02:20PM -3.2980 -59.6260 285° West 297 342 9,600 -1,149 Descending FlightAware
02:20PM -3.2780 -59.6990 285° West 291 335 8,500 -1,098 Descending FlightAware
02:21PM -3.2670 -59.7320 288° West 290 334 8,100 -857 Descending FlightAware
02:22PM -3.2550 -59.7870 282° West 275 316 7,500 -1,143 Descending FlightAware
02:22PM -3.2420 -59.8390 284° West 280 322 6,500 -1,658 Descending FlightAware
02:23PM -3.2280 -59.8830 288° West 282 325 5,400 -1,700 Descending FlightAware
02:23PM -3.2120 -59.9090 302° West 281 323 4,800 -1,500 Descending FlightAware
02:24PM -3.1920 -59.9400 303° West 276 318 4,100 -1,875 Descending FlightAware
02:24PM -3.1670 -59.9800 302° West 280 322 2,800 -1,417 Descending FlightAware
02:25PM -3.1440 -60.0170 302° West 264 304 2,400 -486 Descending FlightAware
02:26PM -3.1210 -60.0560 301° West 235 270 2,200 -158 Descending FlightAware
02:26PM -3.1170 -60.0960 276° West 221 254 2,200  Level FlightAware
02:27PM -3.1150 -60.1290 273° West 221 254 2,200  Level FlightAware
02:27PM -3.1130 -60.1530 275° West 215 247 2,200  Level FlightAware
02:28PM -3.1110 -60.1820 274° West 211 243 2,200  Level FlightAware
02:28PM -3.0870 -60.2060 315° West 196 226 2,200  Level FlightAware
02:29PM -3.0640 -60.1910 33° Northeast 190 219 2,200 87 Level FlightAware
02:30PM -3.0530 -60.1610 70° East 179 206 2,300 -405 Climbing FlightAware
02:30PM -3.0420 -60.1340 68° East 160 184 1,700 -783 Descending FlightAware
02:31PM -3.0390 -60.1120 82° East 145 167 1,400 -618 Descending FlightAware
02:31PM -3.0380 -60.0900 87° East 145 167 1,000 -494 Descending FlightAware
02:32PM -3.0380 -60.0570 90° East 152 175 700 -367 Descending FlightAware

Login

Don't have an account? Register now (free) for customized features, flight alerts, and more!